Beaufort, NC

3:17 AM EDT on August 25, 2019 (GMT -0400)
Smith

Weather History for KMRH - April, 2019

Change the Weather History Date:

Wednesday, April 17, 2019

  Actual Average Record
Temperature  
Mean Temperature 66 °F -  
Max Temperature 73 °F 71 °F 82 °F (1976)
Min Temperature 60 °F 49 °F 36 °F (1962)
Cooling Degree Days 1    
Growing Degree Days 16 (Base 50)    
Moisture  
Dew Point 55 °F    
Average Humidity 68    
Maximum Humidity 78    
Minimum Humidity 51    
Precipitation  
Precipitation 0.00 in - - ()
Sea Level Pressure  
Sea Level Pressure 30.12 in    
Wind  
Wind Speed 10 mph (SW)    
Max Wind Speed 20 mph    
Max Gust Speed -    
Visibility 10 miles    
Events      
Averages and records for this station are not official NWS values.
T = Trace of Precipitation, MM = Missing Value Source: NWS Daily Summary

Daily Weather History Graph

Daily Weather History Graph

Search for Another Location

Airport or City:

Astronomy

Apr. 17, 2019 Rise Set
Actual Time 6:32 AM EDT 7:40 PM EDT
Civil Twilight 6:06 AM EDT 8:06 PM EDT
Nautical Twilight 5:35 AM EDT 8:37 PM EDT
Astronomical Twilight 5:03 AM EDT 9:09 PM EDT
Moon 5:50 PM EDT (4/17) 5:41 AM EDT (4/17)
Length of Visible Light 13h 59m
Length of Day
13h 07m
Waxing Gibbous, 96% of the Moon is Illuminated
Apr 17
Waxing Gibbous
Apr 19
Full
Apr 26
Last Quarter
May 4
New
May 11
First Quarter

Hourly Weather History & Observations

Time (EDT) Temp. Dew Point Humidity Pressure Visibility Wind Dir Wind Speed Gust Speed Precip Events Conditions
12:58 AM 61.0 °F 52.0 °F 72% 30.17 in 10.0 mi WSW 6.9 mph - N/A   Clear
1:58 AM 61.0 °F 52.0 °F 72% 30.17 in 10.0 mi WSW 8.1 mph - N/A   Clear
2:58 AM 60.1 °F 53.1 °F 78% 30.15 in 10.0 mi WSW 8.1 mph - N/A   Clear
3:58 AM 60.1 °F 53.1 °F 78% 30.14 in 10.0 mi WSW 5.8 mph - N/A   Clear
4:58 AM 60.1 °F 52.0 °F 75% 30.14 in 10.0 mi WSW 5.8 mph - N/A   Clear
5:58 AM 60.1 °F 53.1 °F 78% 30.13 in 10.0 mi WSW 5.8 mph - N/A   Clear
6:58 AM 61.0 °F 54.0 °F 78% 30.14 in 10.0 mi WSW 8.1 mph - N/A   Clear
7:58 AM 63.0 °F 55.9 °F 78% 30.16 in 10.0 mi WSW 9.2 mph - N/A   Clear
8:58 AM 64.9 °F 55.9 °F 73% 30.16 in 10.0 mi WSW 12.7 mph - N/A   Clear
9:58 AM 66.9 °F 48.9 °F 52% 30.16 in 10.0 mi WSW 12.7 mph - N/A   Clear
10:58 AM 69.1 °F 51.1 °F 53% 30.16 in 10.0 mi SW 16.1 mph - N/A   Clear
11:58 AM 71.1 °F 52.0 °F 51% 30.15 in 10.0 mi SW 17.3 mph - N/A   Clear
12:58 PM 71.1 °F 55.0 °F 57% 30.13 in 10.0 mi SW 16.1 mph - N/A   Clear
1:58 PM 72.0 °F 55.9 °F 57% 30.12 in 10.0 mi SW 19.6 mph - N/A   Clear
2:58 PM 72.0 °F 57.9 °F 61% 30.10 in 10.0 mi SW 16.1 mph - N/A   Clear
3:58 PM 72.0 °F 55.9 °F 57% 30.08 in 10.0 mi SW 17.3 mph - N/A   Clear
4:58 PM 71.1 °F 55.9 °F 59% 30.07 in 10.0 mi SW 16.1 mph - N/A   Clear
5:58 PM 69.1 °F 55.9 °F 63% 30.08 in 10.0 mi SW 12.7 mph - N/A   Clear
6:58 PM 66.9 °F 55.9 °F 68% 30.07 in 10.0 mi SW 9.2 mph - N/A   Clear
7:58 PM 64.9 °F 55.9 °F 73% 30.08 in 10.0 mi SSW 6.9 mph - N/A   Clear
8:58 PM 64.9 °F 55.9 °F 73% 30.09 in 10.0 mi SSW 10.4 mph - N/A   Clear
9:58 PM 66.0 °F 55.9 °F 70% 30.11 in 10.0 mi SW 11.5 mph - N/A   Clear
10:58 PM 64.9 °F 57.0 °F 75% 30.11 in 10.0 mi SW 9.2 mph - N/A   Clear
11:58 PM 64.9 °F 57.9 °F 78% 30.11 in 10.0 mi SSW 11.5 mph - N/A   Clear